Regional Weather Roundup
Issued by NWS

Home | Current Version | Previous Version | Graphics & Text | Print | Product List | Glossary On
Versions: 1 2 3 4 5 6 7 8 9 10 11 12 13 14 15 16 17 18 19 20 21 22 23 24 25 26 27 28 29 30 31 32 33 34 35 36 37 38 39 40 41 42 43 44 45 46 47 48 49 50
000
ASUS43 KMPX 160801
RWRMN
WEATHER ROUNDUP FOR MINNESOTA
NATIONAL WEATHER SERVICE TWIN CITIES/CHANHASSEN MN
200 AM CST MON JAN 16 2017


NOTE: "FAIR" INDICATES FEW OR NO CLOUDS BELOW 12,000 FEET WITH NO
SIGNIFICANT WEATHER AND/OR OBSTRUCTIONS TO VISIBILITY. N/A MEANS
CURRENT SKY AND/OR WEATHER CONDITIONS ARE NOT AVAILABLE.

MNZ060>063-068>070-160900-
   Twin Cities Metro

CITY           SKY/WX    TMP DP  RH WIND       PRES   REMARKS
TWIN CITIES    CLOUDY    19  14  81 SE3       30.20S
ST PAUL        CLOUDY    18  16  92 SE6       30.22S FOG     WCI  10
CRYSTAL        CLOUDY    21  14  74 CALM      30.18S
BLAINE         CLOUDY    18  16  93 CALM      30.18S
LAKEVILLE      CLOUDY    14  12  92 CALM      30.19S
EDEN PRAIRIE   CLOUDY    20  14  77 S6        30.18S WCI  12
SOUTH ST PAUL  CLOUDY    16  14  90 CALM      30.20S
LAKE ELMO      FAIR      19  18  93 CALM      30.21R
$$
MNZ001>005-007-008-013>017-022>024-027-028-160900-
   Northwest Minnesota

CITY           SKY/WX    TMP DP  RH WIND       PRES   REMARKS
BEMIDJI        CLOUDY     7   5  90 S3        30.06S FOG
HALLOCK        CLOUDY     7   1  78 S12       30.02F WCI  -9
ROSEAU         CLOUDY    12   7  79 SW5       30.02R WCI   4
WARROAD        CLOUDY    16  10  79 SW13      30.00R WCI   2
THIEF RVR FALL CLOUDY    12   8  84 SW13      30.05R WCI  -3
CROOKSTON      CLOUDY    10   7  85 S14       30.08R WCI  -5
FOSSTON        CLOUDY    14  10  85 S15       30.06S WCI  -1
DETROIT LAKES  CLOUDY    18  16  93 S3        30.09S
MOORHEAD       CLOUDY    10   7  85 S8        30.11R WCI  -1
PARK RAPIDS    CLOUDY    14   9  80 CALM      30.08R HAZE
MAHNOMEN       FAIR      13  11  91 S9        30.07F WCI   0
$$
MNZ006-009>011-018-025>026-160900-
   North Central Minnesota

CITY           SKY/WX    TMP DP  RH WIND       PRES   REMARKS
BAUDETTE       CLOUDY    12   7  80 S5        30.01R WCI   4
FLAG ISLAND    CLOUDY     7   1  78 S9        30.00R WCI  -7
INTL FALLS     CLOUDY    11   7  84 SW6       30.03S WCI   1
WASKISH        CLOUDY    18  14  86 S5        30.04S WCI  11
BIG FORK       CLOUDY    16  12  86 S8        30.06S WCI   5
LONGVILLE      PTCLDY     9   7  92 SE3       30.10R
GRAND RAPIDS   CLOUDY    14  11  87 CALM      30.11R
CRANE LAKE     CLOUDY    18  14  86 S3        30.08R
ORR            CLOUDY    16  10  79 CALM      30.05R
COOK           CLOUDY    19  16  86 CALM      30.08R
WALKER         FAIR      17  14  89 SW3       30.08R
$$
MNZ012-019>021-037-160900-
   Northeast Minnesota

CITY           SKY/WX    TMP DP  RH WIND       PRES   REMARKS
DULUTH         CLOUDY    18  15  88 W9        30.10R FOG     WCI   7
ELY            CLOUDY    18  12  79 SW5       30.07R WCI  11
HIBBING        CLOUDY     0  -2  91 CALM      30.09S FOG
EVELETH        CLOUDY     6   2  84 CALM      30.10S
DULUTH HARBOR  CLOUDY    18  16  93 CALM      30.17R
TWO HARBORS    CLOUDY    16  12  86 CALM      30.10R FOG
SILVER BAY     CLOUDY    18  16  93 SW3       30.10R
GRAND MARAIS     N/A     26  17  68 W6        30.10R WCI  19
G MARAIS ARPRT CLOUDY    16  10  79 SW5       30.03S WCI   9
$$
MNZ029>031-032-039>041-046>048-054>057-064-160900-
   West Central Minnesota

CITY           SKY/WX    TMP DP  RH WIND       PRES   REMARKS
FERGUS FALLS   CLOUDY    18  14  86 SE5       30.16R WCI  11
WHEATON        CLOUDY    16  12  86 SE5       30.13R WCI   9
MORRIS         CLOUDY    12  10  92 S9        30.10S FOG     WCI   0
ALEXANDRIA     CLOUDY    18  15  88 S7        30.10F WCI   9
ELBOW LAKE     FAIR      15  13  92 SE7       30.11S FOG     WCI   6
WADENA         CLOUDY    10   9  92 CALM      30.08F FOG
GLENWOOD       CLEAR     14  12  92 S12       30.11F WCI   0
APPLETON       CLOUDY    18  14  86 S6        30.12F WCI   9
ORTONVILLE     CLOUDY    12   9  85 CALM      30.11S
MADISON        CLOUDY    16  12  86 S6        30.12F WCI   7
WILLMAR        FAIR      14  12  92 CALM      30.15S
$$
MNZ033>034-036-042>043-049>051-058-059-160900-
   Central Minnesota

CITY           SKY/WX    TMP DP  RH WIND       PRES   REMARKS
ST CLOUD       CLOUDY    12  11  95 S7        30.14S FOG     WCI   1
SAUK CENTRE    FAIR      13  12  95 S7        30.11F WCI   3
PAYNESVILLE    CLOUDY    20  17  85 S3        30.14S
AITKIN         CLOUDY     7   0  72 CALM      30.10S
PINE RIVER     CLOUDY     9   7  92 CALM      30.13S FOG
BRAINERD       CLOUDY     8   8 100 CALM      30.12R FOG
STAPLES        CLOUDY     7   3  85 CALM      30.10R FOG
LONG PRAIRIE   FAIR       5   3  92 S5        30.12S FOG     WCI  -4
LITTLE FALLS   CLOUDY     9   5  85 SE3       30.13F FOG
LITCHFIELD     CLOUDY    19  18  93 CALM      30.16R
BUFFALO        CLOUDY    19  16  87 S3        30.18S
MAPLE LAKE     CLOUDY    19  17  93 CALM      30.17S
HUTCHINSON     CLOUDY    17  15  93 CALM      30.17S
$$
MNZ037-044-045-052-053-160900-
   East Central Minnesota

CITY           SKY/WX    TMP DP  RH WIND       PRES   REMARKS
PRINCETON      CLOUDY    18  16  93 S5        30.16S WCI  11
MORA           CLOUDY     3   0  85 CALM      30.17S
CAMBRIDGE      CLOUDY    19  12  73 S5        30.16S HAZE    WCI  13
RUSH CITY        N/A     14  12  92 S5        30.18S WCI   6
MOOSE LAKE     CLOUDY    12  10  92 CALM      30.13S FOG
HINCKLEY         N/A      7   3  85 CALM      30.16S FOG
CLOQUET        CLOUDY    18  16  93 SW6       30.12R FOG     WCI   9
MCGREGOR       CLOUDY    18  16  93 CALM      30.12R
$$
MNZ071>073-080-081-089-090-097-098-160900-
   Southwest Minnesota

CITY           SKY/WX    TMP DP  RH WIND       PRES   REMARKS
MONTEVIDEO     CLOUDY    18  16  93 SW5       30.15S WCI  11
GRANITE FALLS  CLOUDY    16  13  86 SE8       30.16S WCI   6
CANBY          CLOUDY    22  16  77 CALM      30.13S
MARSHALL       CLOUDY    23  15  71 SW12      30.13F WCI  12
REDWOOD FALLS  CLOUDY    20  15  81 SE5       30.16S WCI  13
OLIVIA         CLOUDY    19  18  93 S6        30.15S WCI  11
PIPESTONE      CLOUDY    25  16  68 SE5       30.10F WCI  19
WINDOM         CLOUDY    21  19  93 SE5       30.15R WCI  15
WORTHINGTON    CLOUDY    24  20  84 S6        30.13F WCI  17
JACKSON        CLOUDY    23  19  86 SE5       30.15S WCI  17
TRACY          CLOUDY    27  19  74 SW13      30.12F WCI  16
SLAYTON        MOCLDY    20  17  87 SE6       30.13F WCI  12
$$
MNZ065>067-074>077-082>085-091>093-160900-
   South Central Minnesota

CITY           SKY/WX    TMP DP  RH WIND       PRES   REMARKS
MANKATO        CLOUDY    21  16  81 CALM      30.19S
NEW ULM        CLOUDY    19  16  86 SE5       30.17F WCI  13
ST JAMES       CLOUDY    21  19  93 SE5       30.18S WCI  15
FAIRMONT       CLOUDY    24  20  84 SE6       30.17F WCI  17
GLENCOE        CLOUDY    22  20  91 S7        30.17S WCI  14
FARIBAULT      CLOUDY    21  16  79 S5        30.19F WCI  15
OWATONNA       CLOUDY    23  16  74 SE9       30.18F WCI  13
WASECA         CLOUDY    23  18  80 SE8       30.20S WCI  14
ALBERT LEA     CLOUDY    25  18  74 S6        30.18S WCI  18
$$
MNZ078>079-086>088-094>096-160900-
   Southeast Minnesota

CITY           SKY/WX    TMP DP  RH WIND       PRES   REMARKS
ROCHESTER      CLOUDY    18  16  92 S6        30.20S WCI  10
RED WING       CLOUDY    16  12  86 CALM      30.22S
STANTON        CLOUDY    21  16  79 S5        30.19S WCI  15
DODGE CENTER   CLOUDY    18  12  79 CALM      30.18F
WINONA         CLOUDY    12  10  92 CALM      30.26S
AUSTIN         CLOUDY    25  18  74 CALM      30.19S
PRESTON        CLOUDY    19  16  85 S5        30.21S WCI  13
$$
ABBREVIATIONS USED IN REMARKS
   TC - TEMPERATURES IN CELSIUS
  WCI - WIND CHILL INDEX
   HX - HEAT INDEX
  VSB - VISIBILITY
$$




USA.gov is the U.S. government's official web portal to all federal, state and local government web resources and services.